,,,PA_Meas_PMT16A,,PR_Meas_QMR101_102,,RH_Meas_QMH101,,SR_Meas_QMS101,,TA_Meas_QMH101,,GenWind,,GenWind,
date,time,status,PA,status,PR,status,RH,status,SR,status,TA,status,DirAvg,status,SpdAvg,
2011-10-01, 00:00:05,VALID,1008.863,VALID,0.0,VALID,104.0,VALID,0.0,VALID,24.121,VALID,42.0,VALID,0.468,
2011-10-01, 00:01:05,VALID,1008.845,VALID,0.0,VALID,104.0,VALID,0.0,VALID,24.101,VALID,42.0,VALID,0.225,
2011-10-01, 00:02:05,VALID,1008.843,VALID,0.0,VALID,104.0,VALID,0.112,VALID,24.101,VALID,42.0,VALID,0.056,
2011-10-01, 00:03:05,VALID,1008.821,VALID,0.0,VALID,104.0,VALID,0.112,VALID,24.103,VALID,42.0,VALID,0.282,
2011-10-01, 00:04:05,VALID,1008.839,VALID,0.0,VALID,104.0,VALID,0.112,VALID,24.062,VALID,42.0,VALID,0.268,
2011-10-01, 00:05:05,VALID,1008.818,VALID,0.0,VALID,104.0,VALID,0.112,VALID,24.064,VALID,42.0,VALID,0.391,
2011-10-01, 00:06:05,VALID,1008.826,VALID,0.0,VALID,104.0,VALID,0.0,VALID,24.025,VALID,42.0,VALID,0.185,
2011-10-01, 00:07:05,VALID,1008.845,VALID,0.0,VALID,104.0,VALID,0.0,VALID,23.984,VALID,42.0,VALID,0.028,
2011-10-01, 00:08:05,VALID,1008.832,VALID,0.0,VALID,104.0,VALID,0.112,VALID,23.984,VALID,42.0,VALID,0.0,
2011-10-01, 00:09:05,VALID,1008.843,VALID,0.0,VALID,104.0,VALID,0.112,VALID,23.965,VALID,42.0,VALID,0.0,
2011-10-01, 00:10:05,VALID,1008.866,VALID,0.0,VALID,104.0,VALID,0.0,VALID,24.006,VALID,42.0,VALID,0.0,
2011-10-01, 00:11:05,VALID,1008.851,VALID,0.0,VALID,104.0,VALID,0.0,VALID,23.984,VALID,42.0,VALID,0.0,
2011-10-01, 00:12:05,VALID,1008.847,VALID,0.0,VALID,104.0,VALID,0.0,VALID,24.006,VALID,42.0,VALID,0.157,
2011-10-01, 00:13:05,VALID,1008.862,VALID,0.0,VALID,104.0,VALID,0.112,VALID,24.023,VALID,42.0,VALID,0.0,
2011-10-01, 00:14:04,VALID,1008.895,VALID,0.0,VALID,104.0,VALID,0.0,VALID,24.023,VALID,42.0,VALID,0.253,
2011-10-01, 00:15:04,VALID,1008.886,VALID,0.0,VALID,104.0,VALID,0.0,VALID,24.062,VALID,42.0,VALID,0.287,
2011-10-01, 00:16:04,VALID,1008.898,VALID,0.0,VALID,104.0,VALID,0.112,VALID,24.082,VALID,42.0,VALID,0.181,
2011-10-01, 00:17:04,VALID,1008.904,VALID,0.0,VALID,104.0,VALID,0.0,VALID,24.103,VALID,42.0,VALID,0.091,
2011-10-01, 00:18:04,VALID,1008.909,VALID,0.0,VALID,104.0,VALID,0.0,VALID,24.103,VALID,42.0,VALID,0.227,
2011-10-01, 00:19:04,VALID,1008.893,VALID,0.0,VALID,104.0,VALID,0.0,VALID,24.043,VALID,42.0,VALID,0.462,
2011-10-01, 00:20:04,VALID,1008.868,VALID,0.0,VALID,104.0,VALID,0.112,VALID,24.023,VALID,42.0,VALID,0.722,
2011-10-01, 00:21:04,VALID,1008.846,VALID,0.0,VALID,104.0,VALID,0.112,VALID,24.043,VALID,43.0,VALID,0.713,
2011-10-01, 00:22:04,VALID,1008.821,VALID,0.0,VALID,104.0,VALID,0.112,VALID,24.023,VALID,49.0,VALID,0.84,
2011-10-01, 00:23:04,VALID,1008.775,VALID,0.0,VALID,104.0,VALID,0.112,VALID,24.023,VALID,65.0,VALID,0.831,
2011-10-01, 00:24:04,VALID,1008.754,VALID,0.0,VALID,104.0,VALID,0.0,VALID,24.004,VALID,61.0,VALID,0.688,
2011-10-01, 00:25:04,VALID,1008.755,VALID,0.0,VALID,104.0,VALID,0.112,VALID,24.004,VALID,52.0,VALID,0.916,
2011-10-01, 00:26:04,VALID,1008.781,VALID,0.0,VALID,104.0,VALID,0.112,VALID,23.984,VALID,83.0,VALID,0.594,
2011-10-01, 00:27:04,VALID,1008.767,VALID,0.0,VALID,104.0,VALID,0.0,VALID,24.006,VALID,83.0,VALID,0.527,
2011-10-01, 00:28:04,VALID,1008.784,VALID,0.0,VALID,104.0,VALID,0.0,VALID,23.984,VALID,74.0,VALID,0.844,
2011-10-01, 00:29:04,VALID,1008.791,VALID,0.0,VALID,104.0,VALID,0.0,VALID,24.004,VALID,38.0,VALID,0.44,
2011-10-01, 00:30:04,VALID,1008.774,VALID,0.0,VALID,104.0,VALID,0.0,VALID,24.025,VALID,46.0,VALID,0.691,
2011-10-01, 00:31:04,VALID,1008.74,VALID,0.0,VALID,104.0,VALID,0.112,VALID,24.023,VALID,46.0,VALID,0.412,
2011-10-01, 00:32:04,VALID,1008.738,VALID,0.0,VALID,104.0,VALID,0.112,VALID,24.023,VALID,49.0,VALID,0.65,
2011-10-01, 00:33:04,VALID,1008.727,VALID,0.0,VALID,104.0,VALID,0.112,VALID,24.045,VALID,50.0,VALID,0.664,
2011-10-01, 00:34:04,VALID,1008.721,VALID,0.0,VALID,104.0,VALID,0.112,VALID,24.023,VALID,50.0,VALID,0.456,
2011-10-01, 00:35:04,VALID,1008.718,VALID,0.0,VALID,104.0,VALID,0.112,VALID,24.045,VALID,50.0,VALID,0.413,
2011-10-01, 00:36:04,VALID,1008.736,VALID,0.0,VALID,104.0,VALID,0.112,VALID,24.004,VALID,50.0,VALID,0.32,
2011-10-01, 00:37:04,VALID,1008.77,VALID,0.0,VALID,104.0,VALID,0.112,VALID,23.984,VALID,50.0,VALID,0.403,
2011-10-01, 00:38:04,VALID,1008.748,VALID,0.0,VALID,104.0,VALID,0.112,VALID,23.965,VALID,50.0,VALID,0.384,
2011-10-01, 00:39:04,VALID,1008.751,VALID,0.0,VALID,104.0,VALID,0.0,VALID,23.965,VALID,50.0,VALID,0.504,
2011-10-01, 00:40:04,VALID,1008.764,VALID,0.0,VALID,104.0,VALID,0.112,VALID,23.946,VALID,50.0,VALID,0.38,
2011-10-01, 00:41:04,VALID,1008.75,VALID,0.0,VALID,104.0,VALID,0.0,VALID,23.946,VALID,50.0,VALID,0.268,
2011-10-01, 00:42:04,VALID,1008.763,VALID,0.0,VALID,104.0,VALID,0.0,VALID,23.967,VALID,50.0,VALID,0.155,
2011-10-01, 00:43:04,VALID,1008.786,VALID,0.0,VALID,104.0,VALID,0.112,VALID,23.986,VALID,50.0,VALID,0.283,
2011-10-01, 00:44:04,VALID,1008.8,VALID,0.0,VALID,104.0,VALID,0.0,VALID,23.965,VALID,50.0,VALID,0.203,
2011-10-01, 00:45:04,VALID,1008.763,VALID,0.0,VALID,104.0,VALID,0.0,VALID,24.006,VALID,50.0,VALID,0.261,
2011-10-01, 00:46:04,VALID,1008.782,VALID,0.0,VALID,104.0,VALID,0.112,VALID,24.006,VALID,50.0,VALID,0.161,
2011-10-01, 00:47:04,VALID,1008.772,VALID,0.0,VALID,104.0,VALID,0.112,VALID,23.965,VALID,50.0,VALID,0.182,
2011-10-01, 00:48:04,VALID,1008.783,VALID,0.0,VALID,104.0,VALID,0.112,VALID,23.984,VALID,50.0,VALID,0.418,
2011-10-01, 00:49:04,VALID,1008.809,VALID,0.0,VALID,104.0,VALID,0.112,VALID,23.984,VALID,50.0,VALID,0.19,
2011-10-01, 00:50:04,VALID,1008.8,VALID,0.0,VALID,104.0,VALID,0.112,VALID,24.006,VALID,49.0,VALID,0.285,
2011-10-01, 00:51:04,VALID,1008.809,VALID,0.0,VALID,104.0,VALID,0.112,VALID,23.984,VALID,48.0,VALID,0.163,
2011-10-01, 00:52:04,VALID,1008.837,VALID,0.0,VALID,104.0,VALID,0.112,VALID,24.004,VALID,48.0,VALID,0.31,
2011-10-01, 00:53:04,VALID,1008.818,VALID,0.0,VALID,104.0,VALID,0.112,VALID,24.023,VALID,48.0,VALID,0.076,
2011-10-01, 00:54:04,VALID,1008.838,VALID,0.0,VALID,104.0,VALID,0.112,VALID,24.023,VALID,48.0,VALID,0.288,
2011-10-01, 00:55:04,VALID,1008.83,VALID,0.0,VALID,104.0,VALID,0.112,VALID,24.023,VALID,48.0,VALID,0.154,
2011-10-01, 00:56:04,VALID,1008.82,VALID,0.0,VALID,104.0,VALID,0.112,VALID,24.023,VALID,48.0,VALID,0.0,
2011-10-01, 00:57:04,VALID,1008.814,VALID,0.0,VALID,104.0,VALID,0.112,VALID,24.043,VALID,48.0,VALID,0.187,
2011-10-01, 00:58:04,VALID,1008.821,VALID,0.0,VALID,104.0,VALID,0.112,VALID,24.043,VALID,48.0,VALID,0.409,
2011-10-01, 00:59:04,VALID,1008.829,VALID,0.0,VALID,104.0,VALID,0.112,VALID,24.043,VALID,48.0,VALID,0.203,
2011-10-01, 01:00:04,VALID,1008.82,VALID,0.0,VALID,104.0,VALID,0.112,VALID,24.082,VALID,48.0,VALID,0.369,
2011-10-01, 01:01:04,VALID,1008.854,VALID,0.0,VALID,104.0,VALID,0.0,VALID,24.062,VALID,48.0,VALID,0.425,
2011-10-01, 01:02:04,VALID,1008.839,VALID,0.0,VALID,104.0,VALID,0.112,VALID,24.082,VALID,48.0,VALID,0.312,
2011-10-01, 01:03:04,VALID,1008.839,VALID,0.0,VALID,104.0,VALID,0.112,VALID,24.082,VALID,48.0,VALID,0.428,
2011-10-01, 01:04:04,VALID,1008.846,VALID,0.0,VALID,104.0,VALID,0.0,VALID,24.084,VALID,48.0,VALID,0.227,
2011-10-01, 01:05:04,VALID,1008.862,VALID,0.0,VALID,104.0,VALID,0.0,VALID,24.062,VALID,48.0,VALID,0.307,
2011-10-01, 01:06:04,VALID,1008.876,VALID,0.0,VALID,104.0,VALID,0.112,VALID,24.103,VALID,350.0,VALID,0.726,
2011-10-01, 01:07:04,VALID,1008.884,VALID,0.0,VALID,104.0,VALID,0.112,VALID,24.082,VALID,349.0,VALID,0.459,
2011-10-01, 01:08:04,VALID,1008.87,VALID,0.0,VALID,104.0,VALID,0.112,VALID,24.101,VALID,346.0,VALID,0.714,
2011-10-01, 01:09:04,VALID,1008.855,VALID,0.0,VALID,104.0,VALID,0.112,VALID,24.101,VALID,351.0,VALID,0.691,
2011-10-01, 01:10:04,VALID,1008.87,VALID,0.0,VALID,104.0,VALID,0.0,VALID,24.101,VALID,348.0,VALID,0.258,
2011-10-01, 01:11:04,VALID,1008.855,VALID,0.0,VALID,104.0,VALID,0.0,VALID,24.082,VALID,348.0,VALID,0.149,
2011-10-01, 01:12:04,VALID,1008.859,VALID,0.0,VALID,104.0,VALID,0.112,VALID,24.101,VALID,348.0,VALID,0.365,
2011-10-01, 01:13:04,VALID,1008.846,VALID,0.0,VALID,104.0,VALID,0.112,VALID,24.101,VALID,349.0,VALID,0.398,
2011-10-01, 01:14:04,VALID,1008.81,VALID,0.0,VALID,104.0,VALID,0.0,VALID,24.103,VALID,350.0,VALID,0.622,
2011-10-01, 01:15:04,VALID,1008.847,VALID,0.0,VALID,104.0,VALID,0.0,VALID,24.082,VALID,351.0,VALID,0.201,
2011-10-01, 01:16:04,VALID,1008.838,VALID,0.0,VALID,104.0,VALID,0.112,VALID,24.101,VALID,351.0,VALID,0.339,
2011-10-01, 01:17:04,VALID,1008.827,VALID,0.0,VALID,104.0,VALID,0.0,VALID,24.082,VALID,351.0,VALID,0.227,
2011-10-01, 01:18:04,VALID,1008.821,VALID,0.0,VALID,104.0,VALID,0.112,VALID,24.082,VALID,351.0,VALID,0.348,
2011-10-01, 01:19:04,VALID,1008.82,VALID,0.0,VALID,104.0,VALID,0.112,VALID,24.082,VALID,351.0,VALID,0.463,
2011-10-01, 01:20:04,VALID,1008.832,VALID,0.0,VALID,104.0,VALID,0.112,VALID,24.103,VALID,351.0,VALID,0.432,
2011-10-01, 01:21:04,VALID,1008.837,VALID,0.0,VALID,104.0,VALID,0.112,VALID,24.062,VALID,351.0,VALID,0.347,
2011-10-01, 01:22:04,VALID,1008.826,VALID,0.0,VALID,104.0,VALID,0.112,VALID,24.064,VALID,351.0,VALID,0.123,
2011-10-01, 01:23:04,VALID,1008.819,VALID,0.0,VALID,104.0,VALID,0.0,VALID,24.043,VALID,351.0,VALID,0.205,
2011-10-01, 01:24:04,VALID,1008.822,VALID,0.0,VALID,104.0,VALID,0.112,VALID,24.004,VALID,351.0,VALID,0.207,
2011-10-01, 01:25:04,VALID,1008.79,VALID,0.0,VALID,104.0,VALID,0.0,VALID,24.004,VALID,351.0,VALID,0.066,
2011-10-01, 01:26:04,VALID,1008.778,VALID,0.0,VALID,104.0,VALID,0.0,VALID,23.984,VALID,351.0,VALID,0.202,
2011-10-01, 01:27:04,VALID,1008.765,VALID,0.0,VALID,104.0,VALID,0.0,VALID,24.004,VALID,351.0,VALID,0.203,
2011-10-01, 01:28:04,VALID,1008.746,VALID,0.0,VALID,104.0,VALID,0.112,VALID,24.004,VALID,351.0,VALID,0.162,
2011-10-01, 01:29:04,VALID,1008.765,VALID,0.0,VALID,104.0,VALID,0.112,VALID,24.023,VALID,351.0,VALID,0.092,
2011-10-01, 01:30:04,VALID,1008.751,VALID,0.0,VALID,104.0,VALID,0.112,VALID,24.004,VALID,351.0,VALID,0.241,
2011-10-01, 01:31:04,VALID,1008.754,VALID,0.0,VALID,104.0,VALID,0.0,VALID,24.025,VALID,351.0,VALID,0.311,
2011-10-01, 01:32:04,VALID,1008.734,VALID,0.0,VALID,104.0,VALID,0.112,VALID,24.004,VALID,351.0,VALID,0.443,
2011-10-01, 01:33:04,VALID,1008.696,VALID,0.0,VALID,104.0,VALID,0.0,VALID,24.004,VALID,351.0,VALID,0.354,
2011-10-01, 01:34:04,VALID,1008.659,VALID,0.0,VALID,104.0,VALID,0.112,VALID,23.965,VALID,351.0,VALID,0.214,
2011-10-01, 01:35:04,VALID,1008.641,VALID,0.0,VALID,104.0,VALID,0.112,VALID,23.967,VALID,351.0,VALID,0.232,
2011-10-01, 01:36:04,VALID,1008.602,VALID,0.0,VALID,104.0,VALID,0.0,VALID,23.967,VALID,351.0,VALID,0.138,
2011-10-01, 01:37:04,VALID,1008.591,VALID,0.0,VALID,104.0,VALID,0.112,VALID,23.946,VALID,351.0,VALID,0.339,
2011-10-01, 01:38:04,VALID,1008.595,VALID,0.0,VALID,104.0,VALID,0.0,VALID,23.967,VALID,351.0,VALID,0.307,
2011-10-01, 01:39:04,VALID,1008.593,VALID,0.0,VALID,104.0,VALID,0.0,VALID,23.926,VALID,351.0,VALID,0.322,
2011-10-01, 01:40:04,VALID,1008.636,VALID,0.0,VALID,104.0,VALID,0.0,VALID,23.947,VALID,351.0,VALID,0.0,
2011-10-01, 01:41:04,VALID,1008.62,VALID,0.0,VALID,104.0,VALID,0.112,VALID,23.926,VALID,351.0,VALID,0.004,
2011-10-01, 01:42:04,VALID,1008.641,VALID,0.0,VALID,104.0,VALID,0.0,VALID,23.907,VALID,351.0,VALID,0.0,
2011-10-01, 01:43:04,VALID,1008.63,VALID,0.0,VALID,104.0,VALID,0.0,VALID,23.928,VALID,352.0,VALID,0.346,
2011-10-01, 01:44:04,VALID,1008.652,VALID,0.0,VALID,104.0,VALID,0.112,VALID,23.947,VALID,352.0,VALID,0.239,
2011-10-01, 01:45:04,VALID,1008.596,VALID,0.0,VALID,104.0,VALID,0.0,VALID,23.928,VALID,352.0,VALID,0.295,
2011-10-01, 01:46:04,VALID,1008.606,VALID,0.0,VALID,104.0,VALID,0.0,VALID,23.928,VALID,352.0,VALID,0.229,
2011-10-01, 01:47:04,VALID,1008.565,VALID,0.0,VALID,104.0,VALID,0.112,VALID,23.947,VALID,352.0,VALID,0.238,
2011-10-01, 01:48:04,VALID,1008.561,VALID,0.0,VALID,104.0,VALID,0.112,VALID,23.928,VALID,352.0,VALID,0.161,
2011-10-01, 01:49:04,VALID,1008.539,VALID,0.0,VALID,104.0,VALID,0.0,VALID,23.907,VALID,352.0,VALID,0.073,
2011-10-01, 01:50:04,VALID,1008.564,VALID,0.0,VALID,104.0,VALID,0.112,VALID,23.907,VALID,352.0,VALID,0.0,
2011-10-01, 01:51:04,VALID,1008.526,VALID,0.0,VALID,104.0,VALID,0.112,VALID,23.889,VALID,352.0,VALID,0.062,
2011-10-01, 01:52:04,VALID,1008.569,VALID,0.0,VALID,104.0,VALID,0.0,VALID,23.889,VALID,352.0,VALID,0.03,
2011-10-01, 01:53:04,VALID,1008.544,VALID,0.0,VALID,104.0,VALID,0.0,VALID,23.848,VALID,352.0,VALID,0.005,
2011-10-01, 01:54:04,VALID,1008.538,VALID,0.0,VALID,104.0,VALID,0.0,VALID,23.889,VALID,351.0,VALID,0.319,
2011-10-01, 01:55:04,VALID,1008.509,VALID,0.0,VALID,104.0,VALID,0.0,VALID,23.889,VALID,351.0,VALID,0.123,
2011-10-01, 01:56:04,VALID,1008.478,VALID,0.0,VALID,104.0,VALID,0.0,VALID,23.908,VALID,351.0,VALID,0.189,
2011-10-01, 01:57:04,VALID,1008.493,VALID,0.0,VALID,104.0,VALID,0.0,VALID,23.908,VALID,351.0,VALID,0.316,
2011-10-01, 01:58:04,VALID,1008.474,VALID,0.0,VALID,104.0,VALID,0.0,VALID,23.907,VALID,351.0,VALID,0.124,
2011-10-01, 01:59:04,VALID,1008.457,VALID,0.0,VALID,104.0,VALID,0.0,VALID,23.908,VALID,351.0,VALID,0.0,
2011-10-01, 02:00:04,VALID,1008.458,VALID,0.0,VALID,104.0,VALID,0.0,VALID,23.889,VALID,351.0,VALID,0.3,
2011-10-01, 02:01:04,VALID,1008.479,VALID,0.0,VALID,104.0,VALID,0.0,VALID,23.908,VALID,351.0,VALID,0.043,
2011-10-01, 02:02:04,VALID,1008.477,VALID,0.0,VALID,104.0,VALID,0.0,VALID,23.908,VALID,351.0,VALID,0.0,
2011-10-01, 02:03:04,VALID,1008.475,VALID,0.0,VALID,104.0,VALID,0.112,VALID,23.887,VALID,351.0,VALID,0.0,
2011-10-01, 02:04:04,VALID,1008.502,VALID,0.0,VALID,104.0,VALID,0.0,VALID,23.889,VALID,351.0,VALID,0.0,
2011-10-01, 02:05:04,VALID,1008.503,VALID,0.0,VALID,104.0,VALID,0.0,VALID,23.889,VALID,351.0,VALID,0.0,
2011-10-01, 02:06:04,VALID,1008.513,VALID,0.0,VALID,104.0,VALID,0.0,VALID,23.848,VALID,351.0,VALID,0.0,
2011-10-01, 02:07:04,VALID,1008.55,VALID,0.0,VALID,104.0,VALID,0.0,VALID,23.887,VALID,351.0,VALID,0.317,
2011-10-01, 02:08:04,VALID,1008.535,VALID,0.0,VALID,104.0,VALID,0.0,VALID,23.908,VALID,351.0,VALID,0.232,
2011-10-01, 02:09:04,VALID,1008.53,VALID,0.0,VALID,104.0,VALID,0.0,VALID,23.887,VALID,351.0,VALID,0.384,
2011-10-01, 02:10:04,VALID,1008.512,VALID,0.0,VALID,104.0,VALID,0.0,VALID,23.926,VALID,351.0,VALID,0.361,
2011-10-01, 02:11:04,VALID,1008.492,VALID,0.0,VALID,104.0,VALID,0.0,VALID,23.926,VALID,351.0,VALID,0.209,
2011-10-01, 02:12:04,VALID,1008.488,VALID,0.0,VALID,104.0,VALID,0.0,VALID,23.967,VALID,350.0,VALID,0.464,
2011-10-01, 02:13:04,VALID,1008.452,VALID,0.0,VALID,104.0,VALID,0.0,VALID,23.986,VALID,350.0,VALID,0.504,
2011-10-01, 02:14:04,VALID,1008.463,VALID,0.0,VALID,104.0,VALID,0.0,VALID,24.006,VALID,350.0,VALID,0.474,
2011-10-01, 02:15:04,VALID,1008.457,VALID,0.0,VALID,104.0,VALID,0.0,VALID,24.006,VALID,348.0,VALID,0.686,
2011-10-01, 02:16:04,VALID,1008.482,VALID,0.0,VALID,104.0,VALID,0.0,VALID,23.965,VALID,347.0,VALID,0.383,
2011-10-01, 02:17:04,VALID,1008.523,VALID,0.0,VALID,104.0,VALID,0.0,VALID,24.006,VALID,347.0,VALID,0.252,
2011-10-01, 02:18:04,VALID,1008.579,VALID,0.0,VALID,104.0,VALID,0.0,VALID,24.006,VALID,347.0,VALID,0.327,
2011-10-01, 02:19:04,VALID,1008.586,VALID,0.0,VALID,104.0,VALID,0.0,VALID,23.986,VALID,347.0,VALID,0.316,
2011-10-01, 02:20:04,VALID,1008.62,VALID,0.0,VALID,104.0,VALID,0.0,VALID,23.947,VALID,347.0,VALID,0.423,
2011-10-01, 02:21:04,VALID,1008.647,VALID,0.0,VALID,104.0,VALID,0.0,VALID,23.928,VALID,349.0,VALID,0.563,
2011-10-01, 02:22:04,VALID,1008.641,VALID,0.0,VALID,104.0,VALID,0.0,VALID,23.908,VALID,353.0,VALID,0.474,
2011-10-01, 02:23:04,VALID,1008.658,VALID,0.0,VALID,104.0,VALID,0.0,VALID,23.928,VALID,353.0,VALID,0.46,
2011-10-01, 02:24:04,VALID,1008.657,VALID,0.0,VALID,104.0,VALID,0.0,VALID,23.928,VALID,353.0,VALID,0.386,
2011-10-01, 02:25:04,VALID,1008.613,VALID,0.0,VALID,104.0,VALID,0.0,VALID,23.93,VALID,353.0,VALID,0.29,
2011-10-01, 02:26:04,VALID,1008.625,VALID,0.0,VALID,104.0,VALID,0.0,VALID,23.908,VALID,353.0,VALID,0.295,
2011-10-01, 02:27:04,VALID,1008.589,VALID,0.0,VALID,104.0,VALID,0.0,VALID,23.887,VALID,353.0,VALID,0.177,
2011-10-01, 02:28:04,VALID,1008.568,VALID,0.0,VALID,104.0,VALID,0.0,VALID,23.928,VALID,353.0,VALID,0.0,
2011-10-01, 02:29:04,VALID,1008.554,VALID,0.0,VALID,104.0,VALID,0.0,VALID,23.908,VALID,353.0,VALID,0.0,
2011-10-01, 02:30:04,VALID,1008.551,VALID,0.0,VALID,104.0,VALID,0.0,VALID,23.908,VALID,353.0,VALID,0.0,
2011-10-01, 02:31:04,VALID,1008.57,VALID,0.0,VALID,104.0,VALID,0.0,VALID,23.889,VALID,353.0,VALID,0.0,
2011-10-01, 02:32:04,VALID,1008.577,VALID,0.0,VALID,104.0,VALID,0.0,VALID,23.887,VALID,353.0,VALID,0.0,
2011-10-01, 02:33:04,VALID,1008.562,VALID,0.0,VALID,104.0,VALID,0.0,VALID,23.907,VALID,353.0,VALID,0.097,
2011-10-01, 02:34:04,VALID,1008.586,VALID,0.0,VALID,104.0,VALID,0.0,VALID,23.928,VALID,353.0,VALID,0.211,
2011-10-01, 02:35:04,VALID,1008.613,VALID,0.0,VALID,104.0,VALID,0.0,VALID,23.928,VALID,353.0,VALID,0.349,
2011-10-01, 02:36:04,VALID,1008.596,VALID,0.0,VALID,104.0,VALID,0.0,VALID,23.967,VALID,353.0,VALID,0.218,
2011-10-01, 02:37:04,VALID,1008.579,VALID,0.0,VALID,104.0,VALID,0.0,VALID,23.986,VALID,353.0,VALID,0.298,
2011-10-01, 02:38:04,VALID,1008.609,VALID,0.0,VALID,104.0,VALID,0.0,VALID,23.986,VALID,353.0,VALID,0.251,
2011-10-01, 02:39:04,VALID,1008.559,VALID,0.0,VALID,104.0,VALID,0.0,VALID,23.986,VALID,353.0,VALID,0.219,
2011-10-01, 02:40:04,VALID,1008.578,VALID,0.0,VALID,104.0,VALID,0.0,VALID,24.006,VALID,353.0,VALID,0.389,
2011-10-01, 02:41:04,VALID,1008.581,VALID,0.0,VALID,104.0,VALID,0.0,VALID,24.064,VALID,309.0,VALID,0.664,
2011-10-01, 02:42:04,VALID,1008.564,VALID,0.0,VALID,104.0,VALID,0.0,VALID,24.084,VALID,308.0,VALID,0.6,
2011-10-01, 02:43:04,VALID,1008.542,VALID,0.0,VALID,104.0,VALID,0.0,VALID,24.103,VALID,308.0,VALID,0.439,
2011-10-01, 02:44:04,VALID,1008.526,VALID,0.0,VALID,104.0,VALID,0.0,VALID,24.142,VALID,308.0,VALID,0.261,
2011-10-01, 02:45:04,VALID,1008.53,VALID,0.0,VALID,104.0,VALID,0.0,VALID,24.101,VALID,307.0,VALID,0.55,
2011-10-01, 02:46:04,VALID,1008.555,VALID,0.0,VALID,104.0,VALID,0.0,VALID,24.103,VALID,303.0,VALID,0.354,
2011-10-01, 02:47:04,VALID,1008.552,VALID,0.0,VALID,104.0,VALID,0.0,VALID,24.084,VALID,309.0,VALID,0.639,
2011-10-01, 02:48:04,VALID,1008.565,VALID,0.0,VALID,104.0,VALID,0.0,VALID,24.103,VALID,314.0,VALID,0.532,
2011-10-01, 02:49:04,VALID,1008.62,VALID,0.0,VALID,104.0,VALID,0.0,VALID,24.084,VALID,315.0,VALID,0.465,
2011-10-01, 02:50:04,VALID,1008.594,VALID,0.0,VALID,104.0,VALID,0.0,VALID,24.084,VALID,315.0,VALID,0.223,
2011-10-01, 02:51:04,VALID,1008.625,VALID,0.0,VALID,104.0,VALID,0.0,VALID,24.064,VALID,316.0,VALID,0.39,
2011-10-01, 02:52:04,VALID,1008.623,VALID,0.0,VALID,104.0,VALID,0.0,VALID,24.084,VALID,319.0,VALID,0.342,
2011-10-01, 02:53:04,VALID,1008.621,VALID,0.0,VALID,104.0,VALID,0.0,VALID,24.045,VALID,319.0,VALID,0.329,
2011-10-01, 02:54:04,VALID,1008.622,VALID,0.0,VALID,104.0,VALID,0.0,VALID,24.004,VALID,319.0,VALID,0.589,
2011-10-01, 02:55:04,VALID,1008.604,VALID,0.0,VALID,104.0,VALID,0.0,VALID,23.986,VALID,319.0,VALID,0.443,
2011-10-01, 02:56:04,VALID,1008.601,VALID,0.0,VALID,104.0,VALID,0.0,VALID,23.967,VALID,319.0,VALID,0.371,
2011-10-01, 02:57:04,VALID,1008.617,VALID,0.0,VALID,104.0,VALID,0.0,VALID,23.947,VALID,319.0,VALID,0.17,
2011-10-01, 02:58:04,VALID,1008.653,VALID,0.0,VALID,104.0,VALID,0.0,VALID,23.967,VALID,319.0,VALID,0.0,
2011-10-01, 02:59:04,VALID,1008.646,VALID,0.0,VALID,104.0,VALID,0.0,VALID,23.967,VALID,319.0,VALID,0.0,
2011-10-01, 03:00:04,VALID,1008.683,VALID,0.0,VALID,104.0,VALID,0.0,VALID,23.947,VALID,319.0,VALID,0.0,
2011-10-01, 03:01:04,VALID,1008.644,VALID,0.0,VALID,104.0,VALID,0.0,VALID,23.967,VALID,319.0,VALID,0.0,
2011-10-01, 03:02:04,VALID,1008.659,VALID,0.0,VALID,104.0,VALID,0.0,VALID,23.986,VALID,319.0,VALID,0.049,
2011-10-01, 03:03:04,VALID,1008.661,VALID,0.0,VALID,104.0,VALID,0.0,VALID,24.006,VALID,319.0,VALID,0.294,
2011-10-01, 03:04:04,VALID,1008.659,VALID,0.0,VALID,104.0,VALID,0.0,VALID,24.025,VALID,319.0,VALID,0.296,
2011-10-01, 03:05:04,VALID,1008.662,VALID,0.0,VALID,104.0,VALID,0.0,VALID,24.025,VALID,319.0,VALID,0.37,
2011-10-01, 03:06:04,VALID,1008.694,VALID,0.0,VALID,104.0,VALID,0.0,VALID,24.006,VALID,319.0,VALID,0.332,
2011-10-01, 03:07:04,VALID,1008.702,VALID,0.0,VALID,104.0,VALID,0.0,VALID,24.025,VALID,319.0,VALID,0.0,
2011-10-01, 03:08:04,VALID,1008.741,VALID,0.0,VALID,104.0,VALID,0.0,VALID,24.025,VALID,319.0,VALID,0.032,
2011-10-01, 03:09:04,VALID,1008.775,VALID,0.0,VALID,104.0,VALID,0.0,VALID,24.025,VALID,319.0,VALID,0.068,
2011-10-01, 03:10:04,VALID,1008.799,VALID,0.0,VALID,104.0,VALID,0.0,VALID,24.045,VALID,319.0,VALID,0.486,
2011-10-01, 03:11:04,VALID,1008.758,VALID,0.0,VALID,104.0,VALID,0.0,VALID,24.064,VALID,319.0,VALID,0.398,
2011-10-01, 03:12:04,VALID,1008.763,VALID,0.0,VALID,104.0,VALID,0.112,VALID,24.103,VALID,319.0,VALID,0.245,
2011-10-01, 03:13:04,VALID,1008.749,VALID,0.0,VALID,104.0,VALID,0.0,VALID,24.103,VALID,319.0,VALID,0.084,
2011-10-01, 03:14:04,VALID,1008.759,VALID,0.0,VALID,104.0,VALID,0.0,VALID,24.103,VALID,319.0,VALID,0.104,
2011-10-01, 03:15:04,VALID,1008.739,VALID,0.0,VALID,104.0,VALID,0.0,VALID,24.103,VALID,319.0,VALID,0.124,
2011-10-01, 03:16:04,VALID,1008.742,VALID,0.0,VALID,104.0,VALID,0.112,VALID,24.103,VALID,319.0,VALID,0.074,
2011-10-01, 03:17:04,VALID,1008.757,VALID,0.0,VALID,104.0,VALID,0.0,VALID,24.123,VALID,319.0,VALID,0.0,
2011-10-01, 03:18:04,VALID,1008.76,VALID,0.0,VALID,104.0,VALID,0.0,VALID,24.123,VALID,319.0,VALID,0.0,
2011-10-01, 03:19:04,VALID,1008.765,VALID,0.0,VALID,104.0,VALID,0.0,VALID,24.123,VALID,319.0,VALID,0.0,
2011-10-01, 03:20:04,VALID,1008.755,VALID,0.0,VALID,104.0,VALID,0.0,VALID,24.123,VALID,319.0,VALID,0.085,
2011-10-01, 03:21:04,VALID,1008.755,VALID,0.0,VALID,104.0,VALID,0.0,VALID,24.123,VALID,319.0,VALID,0.324,
2011-10-01, 03:22:04,VALID,1008.73,VALID,0.0,VALID,104.0,VALID,0.0,VALID,24.123,VALID,319.0,VALID,0.174,
2011-10-01, 03:23:04,VALID,1008.708,VALID,0.0,VALID,104.0,VALID,0.0,VALID,24.123,VALID,319.0,VALID,0.0,
2011-10-01, 03:24:04,VALID,1008.726,VALID,0.0,VALID,104.0,VALID,0.0,VALID,24.123,VALID,319.0,VALID,0.0,
2011-10-01, 03:25:04,VALID,1008.732,VALID,0.0,VALID,104.0,VALID,0.0,VALID,24.103,VALID,319.0,VALID,0.0,
2011-10-01, 03:26:04,VALID,1008.718,VALID,0.0,VALID,104.0,VALID,0.0,VALID,24.082,VALID,319.0,VALID,0.119,
2011-10-01, 03:27:04,VALID,1008.746,VALID,0.0,VALID,104.0,VALID,0.0,VALID,24.103,VALID,319.0,VALID,0.013,
2011-10-01, 03:28:04,VALID,1008.766,VALID,0.0,VALID,104.0,VALID,0.0,VALID,24.084,VALID,319.0,VALID,0.15,
2011-10-01, 03:29:04,VALID,1008.803,VALID,0.0,VALID,104.0,VALID,0.0,VALID,24.064,VALID,319.0,VALID,0.225,
2011-10-01, 03:30:04,VALID,1008.807,VALID,0.0,VALID,104.0,VALID,0.0,VALID,24.084,VALID,319.0,VALID,0.314,
2011-10-01, 03:31:04,VALID,1008.796,VALID,0.0,VALID,104.0,VALID,0.0,VALID,24.045,VALID,319.0,VALID,0.223,
2011-10-01, 03:32:04,VALID,1008.781,VALID,0.0,VALID,104.0,VALID,0.0,VALID,24.045,VALID,319.0,VALID,0.084,
2011-10-01, 03:33:04,VALID,1008.786,VALID,0.0,VALID,104.0,VALID,0.0,VALID,24.025,VALID,319.0,VALID,0.0,
2011-10-01, 03:34:04,VALID,1008.811,VALID,0.0,VALID,104.0,VALID,0.0,VALID,24.006,VALID,319.0,VALID,0.0,
2011-10-01, 03:35:04,VALID,1008.817,VALID,0.0,VALID,104.0,VALID,0.0,VALID,23.986,VALID,319.0,VALID,0.0,
2011-10-01, 03:36:04,VALID,1008.813,VALID,0.0,VALID,104.0,VALID,0.0,VALID,23.967,VALID,319.0,VALID,0.046,
2011-10-01, 03:37:04,VALID,1008.79,VALID,0.0,VALID,104.0,VALID,0.0,VALID,23.988,VALID,319.0,VALID,0.03,
2011-10-01, 03:38:04,VALID,1008.773,VALID,0.0,VALID,104.0,VALID,0.0,VALID,23.947,VALID,319.0,VALID,0.0,
2011-10-01, 03:39:04,VALID,1008.776,VALID,0.0,VALID,104.0,VALID,0.0,VALID,23.928,VALID,319.0,VALID,0.0,
2011-10-01, 03:40:04,VALID,1008.793,VALID,0.0,VALID,104.0,VALID,0.0,VALID,23.949,VALID,319.0,VALID,0.0,
2011-10-01, 03:41:04,VALID,1008.846,VALID,0.0,VALID,104.0,VALID,0.0,VALID,23.907,VALID,319.0,VALID,0.158,